Location: Carthage
(33.8834°N, 106.6595°W)
Time: 13:07:18
(UTC+00:00)

SL-4 R/B - Pass Details

Date: 13 February 2026
Orbit: 382 x 515 km, 51.6° (Epoch: 11 March)

Event Time Altitude Azimuth Distance (km) Brightness Sun altitude
Exits shadow 13:17:17 - 320° (NW) 2,008 4.4 -8.1°
Reaches altitude 10° 13:18:16 10° 323° (NW) 1,617 4.0 -7.9°
Maximum altitude 13:21:51 53° 40° (NE) 596 2.4 -7.1°
Drops below altitude 10° 13:25:36 10° 119° (ESE) 1,684 6.0 -6.4°
Sets 13:27:51 0° 124° (SE) 2,583 7.0 -5.9°
